Location: Joplin
(37.0842°N, 94.5131°W)
Time: 16:50:58
(UTC-05:00)

Envisat - Pass Details

Date: 30 September 2021
Orbit: 764 x 766 km, 98.2° (Epoch: 20 October)

Event Time Altitude Azimuth Distance (km) Brightness Sun altitude
Rises 05:53:52 0° 20° (NNE) 3,235 6.7 -16.5°
Reaches altitude 10° 05:56:18 10° 28° (NNE) 2,305 6.0 -16.1°
Maximum altitude 06:01:06 42° 98° (E) 1,085 4.3 -15.1°
Drops below altitude 10° 06:05:52 10° 169° (S) 2,290 5.5 -14.2°
Sets 06:08:17 0° 176° (S) 3,212 6.2 -13.7°
